Project,Study,Ord_Occ,Event_Num,Cast_ID,Date_Time_UTC,Date_Time_PST,Lat_Dec,Lon_Dec,Sta_ID,Line,Sta,Depth,Pressure,PrQ,Temp1,Temp1Q,Temp2,Temp2Q,TempAve,Salt1,Salt1Q,Salt1_Corr,Salt2,Salt2Q,Salt2_Corr,SaltAve_Corr,Ox1,Ox1Q,Ox1_CruiseCorr,Ox1_StaCorr,Ox2,Ox2Q,Ox2_CruiseCorr,Ox2_StaCorr,OxAve_StaCorr,Ox1uM,Ox1uM_CruiseCorr,Ox1uM_StaCorr,Ox2uM,Ox2uM_CruiseCorr,Ox2uM_StaCorr,OxAveuM_StaCorr,FluorV,FluorQ,EstChl_CruiseCorr,EstChl_StaCorr,ISUSV,ISUSQ,EstNO3_CruiseCorr,EstNO3_StaCorr,SigThetaTS1,SigThetaTS1Q,SigThetaTS2,SigThetaTS2Q,BAT,XMiss,TransQ,pH,pHQ,SPAR,SPARQ,PAR,PARQ,PoT1,PoT2,DynHt,SVA,OxSat1,OxSat2,BTL_Depth,BTL_Temp,SaltB,OxB,OxBuM,Chl-a,Phaeo,NO3,NO2,NH4,PO4,SIL
CalCOFI,2007SR,066,68,2007_066d,26-Jul-2020 08:10:31,26-Jul-2020 00:10:31,34.88934,-121.19896,076.7 055.0,076.7,055.0,2.000,2.015,,16.2997,,16.2999,,16.2998,33.6815,,33.6817,33.6820,,33.6836,33.6827,6.0199,,6.2725,6.2197,4.5354,,6.8862,5.1059,5.6628,262.376,273.4062,272.6162,197.676,476.1894,212.6006,242.6084,0.1874,,1.7831,1.7788,-99.0,,-99.0,-99.0,24.6653,,24.6656,,1.1661,74.7166,,8.265,,1.9043E+00,,5.8773E-01,,16.2993,16.2996,0.0027,,107.620,81.082,2,16.289,33.6839,6.233,272.10,1.174,0.344,0.0,0.00,0.00,0.08,1.74
CalCOFI,2007SR,066,68,2007_066d,26-Jul-2020 08:10:38,26-Jul-2020 00:10:38,34.88934,-121.19896,076.7 055.0,076.7,055.0,3.000,3.022,,16.2953,,16.2939,,16.2946,33.6812,,33.6814,33.6816,,33.6832,33.6823,6.0176,,6.2701,6.2173,4.5385,,6.8936,5.1126,5.6650,262.278,273.3039,272.5146,197.810,475.9497,212.8759,242.6953,0.1759,,1.6470,1.6644,-99.0,,-99.0,-99.0,24.6661,,24.6667,,1.1266,75.4540,,8.266,,1.9043E+00,,5.3260E-01,,16.2948,16.2935,0.0070,,107.570,81.127,,,,,,,,,,,,
CalCOFI,2007SR,066,68,2007_066d,26-Jul-2020 08:10:41,26-Jul-2020 00:10:41,34.88934,-121.19896,076.7 055.0,076.7,055.0,4.000,4.029,,16.2768,,16.2839,,16.2804,33.6804,,33.6806,33.6812,,33.6828,33.6817,6.0256,,6.2784,6.2255,4.5448,,6.9086,5.1264,5.6760,262.626,273.6672,272.8755,198.083,476.8009,213.4368,243.1562,0.1780,,1.6719,1.6855,-99.0,,-99.0,-99.0,24.6698,,24.6688,,1.1179,75.6185,,8.266,,1.9043E+00,,5.0130E-01,,16.2761,16.2832,0.0104,,107.673,81.223,,,,,,,,,,,,
CalCOFI,2007SR,066,68,2007_066d,26-Jul-2020 08:10:43,26-Jul-2020 00:10:43,34.88934,-121.19896,076.7 055.0,076.7,055.0,5.000,5.036,,16.2192,,16.2141,,16.2167,33.6755,,33.6757,33.6752,,33.6768,33.6763,6.0356,,6.2889,6.2358,4.5544,,6.9315,5.1475,5.6917,263.058,274.1181,273.3235,198.499,477.8575,214.2915,243.8075,0.1897,,1.8103,1.8014,-99.0,,-99.0,-99.0,24.6792,,24.6801,,1.1006,75.9452,,8.266,,1.9043E+00,,4.8505E-01,,16.2184,16.2133,0.0137,,107.727,81.281,,,,,,,,,,,,
CalCOFI,2007SR,066,68,2007_066d,26-Jul-2020 08:10:45,26-Jul-2020 00:10:45,34.88934,-121.19896,076.7 055.0,076.7,055.0,6.000,6.044,,16.1918,,16.2037,,16.1978,33.6769,,33.6771,33.6776,,33.6792,33.6782,6.0236,,6.2764,6.2235,4.5541,,6.9308,5.1468,5.6852,262.533,273.5701,272.7790,198.487,476.5734,214.2668,243.5229,0.2067,,2.0115,1.9649,-99.0,,-99.0,-99.0,24.6866,,24.6844,,1.0659,76.6081,,8.266,,1.9043E+00,,4.6928E-01,,16.1909,16.2028,0.0169,,107.457,81.261,,,,,,,,,,,,
CalCOFI,2007SR,066,68,2007_066d,26-Jul-2020 08:10:47,26-Jul-2020 00:10:47,34.88934,-121.19896,076.7 055.0,076.7,055.0,7.000,7.051,,16.2090,,16.2063,,16.2077,33.6761,,33.6763,33.6766,,33.6782,33.6773,6.0162,,6.2686,6.2159,4.5570,,6.9377,5.1532,5.6846,262.212,273.2350,272.4462,198.612,475.7883,214.5237,243.4850,0.2031,,1.9689,1.9307,-99.0,,-99.0,-99.0,24.6821,,24.6831,,1.0605,76.7113,,8.266,,1.9043E+00,,4.5283E-01,,16.2079,16.2052,0.0202,,107.360,81.316,,,,,,,,,,,,
CalCOFI,2007SR,066,68,2007_066d,26-Jul-2020 08:10:50,26-Jul-2020 00:10:50,34.88934,-121.19896,076.7 055.0,076.7,055.0,8.000,8.058,,16.1945,,16.1947,,16.1946,33.6749,,33.6751,33.6765,,33.6781,33.6766,5.9828,,6.2337,6.1815,4.5582,,6.9406,5.1558,5.6687,260.755,271.7140,270.9353,198.665,472.2247,214.6326,242.7840,0.1898,,1.8115,1.8023,-99.0,,-99.0,-99.0,24.6845,,24.6857,,1.0538,76.8392,,8.266,,1.9043E+00,,4.4180E-01,,16.1932,16.1935,0.0235,,106.733,81.319,,,,,,,,,,,,
CalCOFI,2007SR,066,68,2007_066d,26-Jul-2020 08:10:52,26-Jul-2020 00:10:52,34.88934,-121.19896,076.7 055.0,076.7,055.0,9.000,9.066,,16.1935,,16.2229,,16.2082,33.6679,,33.6681,33.6736,,33.6752,33.6717,6.0207,,6.2733,6.2205,4.5614,,6.9482,5.1628,5.6917,262.410,273.4417,272.6515,198.806,476.2726,214.9222,243.7869,0.1807,,1.7038,1.7125,-99.0,,-99.0,-99.0,24.6794,,24.6771,,1.0495,76.9215,,8.266,,1.9043E+00,,4.2405E-01,,16.1921,16.2215,0.0267,,107.403,81.420,,,,,,,,,,,,
CalCOFI,2007SR,066,68,2007_066d,26-Jul-2020 08:10:53,26-Jul-2020 00:10:53,34.88934,-121.19896,076.7 055.0,076.7,055.0,10.000,10.073,,16.0981,,16.0987,,16.0984,33.6596,,33.6598,33.6500,,33.6516,33.6557,6.0152,,6.2676,6.2148,4.5676,,6.9630,5.1764,5.6956,262.166,273.1870,272.3985,199.075,475.6758,215.4749,243.9367,0.1966,,1.8919,1.8684,-99.0,,-99.0,-99.0,24.6948,,24.6872,,1.0280,77.3376,,8.265,,1.9043E+00,,4.1723E-01,,16.0965,16.0972,0.0300,,107.099,81.321,10,15.922,33.6679,6.170,269.38,2.232,0.711,0.0,0.026,0.00,0.12,1.76
CalCOFI,2007SR,066,68,2007_066d,26-Jul-2020 08:10:56,26-Jul-2020 00:10:56,34.88934,-121.19896,076.7 055.0,076.7,055.0,11.000,11.080,,16.1883,,16.1522,,16.1703,33.6743,,33.6745,33.6763,,33.6779,33.6762,5.9772,,6.2279,6.1757,4.5676,,6.9630,5.1764,5.6761,260.510,271.4583,270.6812,199.071,471.6255,215.4667,243.0740,0.1993,,1.9239,1.8944,-99.0,,-99.0,-99.0,24.6855,,24.6953,,1.0390,77.1251,,8.261,,1.9043E+00,,3.9833E-01,,16.1866,16.1504,0.0333,,106.619,81.418,,,,,,,,,,,,
CalCOFI,2007SR,066,68,2007_066d,26-Jul-2020 08:10:58,26-Jul-2020 00:10:58,34.88934,-121.19896,076.7 055.0,076.7,055.0,12.000,12.087,,16.0317,,16.0199,,16.0258,33.6613,,33.6615,33.6609,,33.6625,33.6620,5.9883,,6.2395,6.1871,4.5821,,6.9976,5.2081,5.6976,260.990,271.9594,271.1790,199.699,472.7995,216.7569,243.9680,0.2265,,2.2461,2.1480,-99.0,,-99.0,-99.0,24.7112,,24.7136,,1.0263,77.3692,,8.260,,1.9043E+00,,3.8406E-01,,16.0298,16.0180,0.0366,,106.483,81.458,,,,,,,,,,,,
CalCOFI,2007SR,066,68,2007_066d,26-Jul-2020 08:11:00,26-Jul-2020 00:11:00,34.88934,-121.19896,076.7 055.0,076.7,055.0,13.000,13.095,,15.9579,,15.9559,,15.9569,33.6568,,33.6570,33.6573,,33.6589,33.6580,5.9913,,6.2426,6.1902,4.5873,,7.0101,5.2195,5.7049,261.113,272.0878,271.3065,199.927,473.1003,217.2254,244.2660,0.2481,,2.5023,2.3388,-99.0,,-99.0,-99.0,24.7246,,24.7253,,1.0187,77.5160,,8.256,,1.9043E+00,,3.7898E-01,,15.9558,15.9539,0.0398,,106.378,81.448,,,,,,,,,,,,
CalCOFI,2007SR,066,68,2007_066d,26-Jul-2020 08:11:02,26-Jul-2020 00:11:02,34.88934,-121.19896,076.7 055.0,076.7,055.0,14.000,14.102,,15.9372,,15.9342,,15.9357,33.6540,,33.6542,33.6546,,33.6562,33.6552,5.9498,,6.1992,6.1475,4.5910,,7.0189,5.2276,5.6876,259.309,270.2046,269.4359,200.084,468.6880,217.5479,243.4919,0.2481,,2.5023,2.3388,-99.0,,-99.0,-99.0,24.7271,,24.7282,,1.0683,76.5674,,8.254,,1.9043E+00,,3.7384E-01,,15.9350,15.9320,0.0430,,105.598,81.476,,,,,,,,,,,,
CalCOFI,2007SR,066,68,2007_066d,26-Jul-2020 08:11:04,26-Jul-2020 00:11:04,34.88934,-121.19896,076.7 055.0,076.7,055.0,15.000,15.110,,15.9016,,15.8983,,15.9000,33.6457,,33.6459,33.6463,,33.6479,33.6469,5.8384,,6.0828,6.0328,4.6048,,7.0518,5.2578,5.6453,254.450,265.1323,264.3972,200.688,456.8036,218.7888,241.5930,0.2545,,2.5783,2.3936,-99.0,,-99.0,-99.0,24.7288,,24.7300,,1.1301,75.3872,,8.248,,1.9043E+00,,3.6424E-01,,15.8993,15.8960,0.0463,,103.543,81.660,,,,,,,,,,,,
CalCOFI,2007SR,066,68,2007_066d,26-Jul-2020 08:11:06,26-Jul-2020 00:11:06,34.88934,-121.19896,076.7 055.0,076.7,055.0,16.000,16.117,,15.7151,,15.7214,,15.7183,33.6104,,33.6106,33.6122,,33.6138,33.6122,5.7760,,6.0176,5.9685,4.6283,,7.1079,5.3093,5.6389,251.726,262.2887,261.5725,201.709,450.1411,220.8865,241.2295,0.2502,,2.5272,2.3569,-99.0,,-99.0,-99.0,24.7436,,24.7435,,1.0891,76.1650,,8.241,,1.9043E+00,,3.4566E-01,,15.7126,15.7189,0.0495,,102.040,81.774,,,,,,,,,,,,
CalCOFI,2007SR,066,68,2007_066d,26-Jul-2020 08:11:08,26-Jul-2020 00:11:08,34.88934,-121.19896,076.7 055.0,076.7,055.0,17.000,17.124,,15.2974,,15.3040,,15.3007,33.5543,,33.5545,33.5556,,33.5572,33.5559,5.5637,,5.7958,5.7499,4.6955,,7.2684,5.4565,5.6032,242.464,252.6201,251.9682,204.629,427.4875,226.8857,239.4270,0.2354,,2.3516,2.2278,-99.0,,-99.0,-99.0,24.7930,,24.7925,,1.0183,77.5293,,8.228,,1.9043E+00,,3.4243E-01,,15.2949,15.3014,0.0527,,97.448,82.251,,,,,,,,,,,,
CalCOFI,2007SR,066,68,2007_066d,26-Jul-2020 08:11:10,26-Jul-2020 00:11:10,34.88934,-121.19896,076.7 055.0,076.7,055.0,18.000,18.132,,14.7351,,14.7875,,14.7613,33.4966,,33.4968,33.5023,,33.5039,33.5004,5.5143,,5.7442,5.6990,4.7450,,7.3865,5.5649,5.6320,240.292,250.3527,249.7159,206.773,422.1751,231.2905,240.5032,0.2004,,1.9369,1.9049,-99.0,,-99.0,-99.0,24.8699,,24.8630,,0.9184,79.4877,,8.200,,1.9043E+00,,3.3462E-01,,14.7325,14.7848,0.0558,,95.466,82.237,,,,,,,,,,,,
CalCOFI,2007SR,066,68,2007_066d,26-Jul-2020 08:11:12,26-Jul-2020 00:11:12,34.88934,-121.19896,076.7 055.0,076.7,055.0,19.000,19.139,,13.8132,,13.8245,,13.8189,33.4487,,33.4489,33.4538,,33.4554,33.4522,5.6033,,5.8372,5.7907,4.8139,,7.5510,5.7158,5.7533,244.135,254.3644,253.7009,209.739,431.5746,237.3842,245.5426,0.1643,,1.5099,1.5463,-99.0,,-99.0,-99.0,25.0277,,25.0293,,0.8374,81.1118,,8.167,,1.9043E+00,,3.2529E-01,,13.8105,13.8218,0.0589,,95.197,81.806,,,,,,,,,,,,
CalCOFI,2007SR,066,68,2007_066d,26-Jul-2020 08:11:14,26-Jul-2020 00:11:14,34.88934,-121.19896,076.7 055.0,076.7,055.0,20.000,20.146,,13.7208,,13.7251,,13.7230,33.4505,,33.4507,33.4535,,33.4551,33.4529,5.5977,,5.8313,5.7849,4.8073,,7.5353,5.7013,5.7431,243.885,254.1035,253.4417,209.449,430.9631,236.7884,245.1151,0.1641,,1.5076,1.5442,-99.0,,-99.0,-99.0,25.0480,,25.0494,,0.7983,81.9095,,8.153,,1.9043E+00,,3.1625E-01,,13.7179,13.7223,0.0618,,94.922,81.528,20,13.975,33.5045,5.887,257.05,1.814,0.519,3.17,0.094,1.11,0.49,3.01
CalCOFI,2007SR,066,68,2007_066d,26-Jul-2020 08:11:16,26-Jul-2020 00:11:16,34.88934,-121.19896,076.7 055.0,076.7,055.0,21.000,21.154,,13.6736,,13.6860,,13.6798,33.4536,,33.4538,33.4644,,33.4660,33.4599,5.4956,,5.7247,5.6798,4.7981,,7.5133,5.6811,5.6805,239.435,249.4581,248.8272,209.043,420.0790,235.9543,242.3908,0.1666,,1.5371,1.5699,-99.0,,-99.0,-99.0,25.0600,,25.0659,,0.8090,81.6913,,8.140,,1.9043E+00,,3.1580E-01,,13.6706,13.6830,0.0647,,93.104,81.312,,,,,,,,,,,,
CalCOFI,2007SR,066,68,2007_066d,26-Jul-2020 08:11:19,26-Jul-2020 00:11:19,34.88934,-121.19896,076.7 055.0,076.7,055.0,22.000,22.161,,13.5055,,13.4994,,13.5025,33.4443,,33.4445,33.4458,,33.4474,33.4460,5.3970,,5.6216,5.5783,4.7941,,7.5038,5.6724,5.6254,235.131,244.9652,244.3641,208.864,409.5520,235.5865,239.9753,0.1599,,1.4579,1.5008,-99.0,,-99.0,-99.0,25.0871,,25.0895,,0.7801,82.2818,,8.127,,1.9043E+00,,2.9896E-01,,13.5025,13.4964,0.0676,,91.114,80.926,,,,,,,,,,,,
CalCOFI,2007SR,066,68,2007_066d,26-Jul-2020 08:11:20,26-Jul-2020 00:11:20,34.88934,-121.19896,076.7 055.0,076.7,055.0,23.000,23.168,,13.3747,,13.3705,,13.3726,33.4988,,33.4990,33.4997,,33.5013,33.5002,5.3941,,5.6186,5.5753,4.7937,,7.5028,5.6715,5.6234,234.987,244.8148,244.2148,208.834,409.1998,235.5249,239.8699,0.1534,,1.3812,1.4328,-99.0,,-99.0,-99.0,25.1557,,25.1573,,0.7812,82.2589,,8.119,,1.9043E+00,,2.8354E-01,,13.3716,13.3673,0.0705,,90.851,80.733,,,,,,,,,,,,
CalCOFI,2007SR,066,68,2007_066d,26-Jul-2020 08:11:22,26-Jul-2020 00:11:22,34.88934,-121.19896,076.7 055.0,076.7,055.0,24.000,24.176,,13.3482,,13.3485,,13.3484,33.5169,,33.5171,33.5195,,33.5211,33.5191,5.3603,,5.5833,5.5405,4.7815,,7.4737,5.6448,5.5927,233.511,243.2740,242.6842,208.299,405.5898,234.4257,238.5550,0.1474,,1.3103,1.3694,-99.0,,-99.0,-99.0,25.1751,,25.1771,,0.8077,81.7192,,8.114,,1.9043E+00,,2.7546E-01,,13.3449,13.3452,0.0733,,90.244,80.502,,,,,,,,,,,,
CalCOFI,2007SR,066,68,2007_066d,26-Jul-2020 08:11:24,26-Jul-2020 00:11:24,34.88934,-121.19896,076.7 055.0,076.7,055.0,25.000,25.183,,13.3138,,13.3209,,13.3174,33.5124,,33.5126,33.5170,,33.5186,33.5156,5.2221,,5.4389,5.3982,4.7751,,7.4584,5.6308,5.5145,227.492,236.9908,236.4427,208.020,390.8681,233.8525,235.1476,0.1341,,1.1533,1.2262,-99.0,,-99.0,-99.0,25.1786,,25.1808,,0.8314,81.2350,,8.106,,1.9043E+00,,2.4598E-01,,13.3103,13.3174,0.0761,,87.854,80.347,,,,,,,,,,,,
CalCOFI,2007SR,066,68,2007_066d,26-Jul-2020 08:11:27,26-Jul-2020 00:11:27,34.88934,-121.19896,076.7 055.0,076.7,055.0,26.000,26.191,,13.0019,,12.9831,,12.9925,33.4796,,33.4798,33.4749,,33.4765,33.4782,5.1224,,5.3347,5.2955,4.7852,,7.4825,5.6529,5.4742,223.141,232.4488,231.9309,208.451,380.2262,234.7380,233.3345,0.1109,,0.8798,0.9678,-99.0,,-99.0,-99.0,25.2155,,25.2155,,0.8106,81.6564,,8.095,,1.9043E+00,,1.9834E-01,,12.9984,12.9796,0.0789,,85.607,79.938,,,,,,,,,,,,
CalCOFI,2007SR,066,68,2007_066d,26-Jul-2020 08:11:28,26-Jul-2020 00:11:28,34.88934,-121.19896,076.7 055.0,076.7,055.0,27.000,27.198,,12.8450,,12.8456,,12.8453,33.4888,,33.4890,33.4902,,33.4918,33.4904,5.1001,,5.3114,5.2725,4.7822,,7.4753,5.6463,5.4594,222.160,231.4247,230.9136,208.314,377.8268,234.4566,232.6851,0.1067,,0.8303,0.9199,-99.0,,-99.0,-99.0,25.2536,,25.2546,,0.7722,82.4468,,8.086,,1.9043E+00,,1.7402E-01,,12.8413,12.8420,0.0816,,84.963,79.669,,,,,,,,,,,,
CalCOFI,2007SR,066,68,2007_066d,26-Jul-2020 08:11:30,26-Jul-2020 00:11:30,34.88934,-121.19896,076.7 055.0,076.7,055.0,28.000,28.205,,12.8112,,12.8070,,12.8091,33.4957,,33.4959,33.5006,,33.5022,33.4991,4.9835,,5.1896,5.1525,4.7655,,7.4355,5.6098,5.3812,217.079,226.1207,225.6448,207.583,365.3994,232.9547,229.2998,0.1115,,0.8868,0.9747,-99.0,,-99.0,-99.0,25.2656,,25.2702,,0.7354,83.2069,,8.077,,1.9043E+00,,1.5461E-01,,12.8074,12.8032,0.0844,,82.966,79.333,,,,,,,,,,,,
CalCOFI,2007SR,066,68,2007_066d,26-Jul-2020 08:11:32,26-Jul-2020 00:11:32,34.88934,-121.19896,076.7 055.0,076.7,055.0,29.000,29.213,,12.7419,,12.7361,,12.7390,33.5075,,33.5077,33.5110,,33.5126,33.5102,4.9216,,5.1249,5.0887,4.7423,,7.3801,5.5590,5.3239,214.376,223.2990,222.8419,206.565,358.7883,230.8632,226.8526,0.0969,,0.7148,0.8067,-99.0,,-99.0,-99.0,25.2883,,25.2922,,0.7355,83.2050,,8.067,,1.9043E+00,,1.3026E-01,,12.7380,12.7322,0.0871,,81.823,78.835,,,,,,,,,,,,
CalCOFI,2007SR,066,68,2007_066d,26-Jul-2020 08:11:34,26-Jul-2020 00:11:34,34.88934,-121.19896,076.7 055.0,076.7,055.0,30.000,30.220,,12.7153,,12.7133,,12.7143,33.5147,,33.5149,33.5173,,33.5189,33.5169,4.8773,,5.0786,5.0431,4.7187,,7.3238,5.5073,5.2752,212.446,221.2843,220.8406,205.535,354.0678,228.7471,224.7939,0.1031,,0.7879,0.8786,-99.0,,-99.0,-99.0,25.2991,,25.3015,,0.7260,83.4026,,8.060,,1.9043E+00,,1.0287E-01,,12.7113,12.7093,0.0898,,81.047,78.408,30,12.797,33.5039,,226.64,0.917,0.280,6.89,0.168,1.78,0.80,5.99
CalCOFI,2007SR,066,68,2007_066d,26-Jul-2020 08:11:36,26-Jul-2020 00:11:36,34.88934,-121.19896,076.7 055.0,076.7,055.0,31.000,31.227,,12.7070,,12.7075,,12.7073,33.5180,,33.5182,33.5200,,33.5216,33.5199,4.8089,,5.0071,4.9727,4.6967,,7.2712,5.4591,5.2159,209.467,218.1745,217.7514,204.578,346.7816,226.7809,222.2662,0.0897,,0.6301,0.7223,-99.0,,-99.0,-99.0,25.3033,,25.3048,,0.7225,83.4737,,8.054,,1.9043E+00,,9.2245E-02,,12.7029,12.7033,0.0925,,79.898,78.035,,,,,,,,,,,,
CalCOFI,2007SR,066,68,2007_066d,26-Jul-2020 08:11:38,26-Jul-2020 00:11:38,34.88934,-121.19896,076.7 055.0,076.7,055.0,32.000,32.235,,12.6759,,12.6790,,12.6775,33.5214,,33.5216,33.5234,,33.5250,33.5233,4.7669,,4.9632,4.9294,4.6818,,7.2357,5.4265,5.1780,207.632,216.2589,215.8486,203.926,342.2934,225.4413,220.6450,0.0989,,0.7384,0.8300,-99.0,,-99.0,-99.0,25.3121,,25.3130,,0.7197,83.5324,,8.049,,1.9043E+00,,7.3887E-02,,12.6716,12.6747,0.0951,,79.150,77.743,,,,,,,,,,,,
CalCOFI,2007SR,066,68,2007_066d,26-Jul-2020 08:11:40,26-Jul-2020 00:11:40,34.88934,-121.19896,076.7 055.0,076.7,055.0,33.000,33.242,,12.5545,,12.5532,,12.5539,33.5077,,33.5079,33.5113,,33.5129,33.5104,4.6767,,4.8690,4.8366,4.6746,,7.2185,5.4107,5.1237,203.703,212.1575,211.7744,203.612,332.6836,224.7962,218.2853,0.0797,,0.5124,0.6034,-99.0,,-99.0,-99.0,25.3251,,25.3281,,0.7131,83.6720,,8.044,,1.9043E+00,,6.3963E-02,,12.5502,12.5488,0.0978,,77.451,77.416,,,,,,,,,,,,
CalCOFI,2007SR,066,68,2007_066d,26-Jul-2020 08:11:42,26-Jul-2020 00:11:42,34.88934,-121.19896,076.7 055.0,076.7,055.0,34.000,34.250,,12.3956,,12.3971,,12.3964,33.4962,,33.4964,33.4979,,33.4995,33.4980,4.5401,,4.7263,4.6959,4.6700,,7.2075,5.4006,5.0483,197.749,205.9421,205.6003,203.406,318.1210,224.3730,214.9867,0.0736,,0.4406,0.5299,-99.0,,-99.0,-99.0,25.3468,,25.3478,,0.7116,83.7022,,8.037,,1.9043E+00,,3.8584E-02,,12.3912,12.3926,0.1005,,74.935,77.081,,,,,,,,,,,,
CalCOFI,2007SR,066,68,2007_066d,26-Jul-2020 08:11:44,26-Jul-2020 00:11:44,34.88934,-121.19896,076.7 055.0,076.7,055.0,35.000,35.257,,12.2505,,12.2542,,12.2524,33.4939,,33.4941,33.4947,,33.4963,33.4952,4.5155,,4.7005,4.6706,4.6640,,7.1932,5.3875,5.0291,196.673,204.8188,204.4845,203.138,315.4893,223.8224,214.1535,0.0682,,0.3771,0.4642,-99.0,,-99.0,-99.0,25.3728,,25.3728,,0.7132,83.6697,,8.027,,1.9043E+00,,3.3194E-02,,12.2460,12.2496,0.1031,,74.303,76.751,,,,,,,,,,,,
CalCOFI,2007SR,066,68,2007_066d,26-Jul-2020 08:11:46,26-Jul-2020 00:11:46,34.88934,-121.19896,076.7 055.0,076.7,055.0,36.000,36.265,,12.1180,,12.1109,,12.1145,33.4907,,33.4909,33.4974,,33.4990,33.4950,4.4983,,4.6826,4.6529,4.6526,,7.1660,5.3625,5.0077,195.921,204.0338,203.7047,202.639,313.6500,222.7972,213.2510,0.0662,,0.3536,0.4397,-99.0,,-99.0,-99.0,25.3955,,25.4021,,0.7072,83.7949,,8.017,,1.9043E+00,,2.9966E-02,,12.1133,12.1062,0.1057,,73.813,76.337,,,,,,,,,,,,
CalCOFI,2007SR,066,68,2007_066d,26-Jul-2020 08:11:49,26-Jul-2020 00:11:49,34.88934,-121.19896,076.7 055.0,076.7,055.0,37.000,37.272,,12.0022,,11.9899,,11.9961,33.4795,,33.4797,33.4804,,33.4820,33.4809,4.4815,,4.6650,4.6356,4.6285,,7.1084,5.3097,4.9727,195.185,203.2655,202.9415,201.587,311.8498,220.6358,211.7887,0.0605,,0.2866,0.3695,-99.0,,-99.0,-99.0,25.4088,,25.4118,,0.7027,83.8893,,8.009,,1.9043E+00,,1.7328E-02,,11.9974,11.9852,0.1083,,73.353,75.740,,,,,,,,,,,,
CalCOFI,2007SR,066,68,2007_066d,26-Jul-2020 08:11:51,26-Jul-2020 00:11:51,34.88934,-121.19896,076.7 055.0,076.7,055.0,38.000,38.280,,11.9234,,11.9214,,11.9224,33.4705,,33.4707,33.4730,,33.4746,33.4727,4.4689,,4.6519,4.6226,4.6101,,7.0645,5.2694,4.9460,194.635,202.6914,202.3712,200.783,310.5046,218.9840,210.6776,0.0599,,0.2795,0.3620,-99.0,,-99.0,-99.0,25.4166,,25.4189,,0.7035,83.8712,,8.003,,1.9043E+00,,1.2740E-02,,11.9185,11.9166,0.1109,,73.022,75.327,,,,,,,,,,,,
CalCOFI,2007SR,066,68,2007_066d,26-Jul-2020 08:11:52,26-Jul-2020 00:11:52,34.88934,-121.19896,076.7 055.0,076.7,055.0,39.000,39.287,,11.8698,,11.8712,,11.8705,33.4666,,33.4668,33.4684,,33.4700,33.4684,4.4678,,4.6507,4.6215,4.5951,,7.0287,5.2366,4.9291,194.586,202.6402,202.3204,200.129,310.3847,217.6404,209.9804,0.0636,,0.3230,0.4077,-99.0,,-99.0,-99.0,25.4236,,25.4247,,0.6995,83.9556,,7.999,,1.9043E+00,,9.4508E-03,,11.8648,11.8663,0.1135,,72.920,75.001,,,,,,,,,,,,
CalCOFI,2007SR,066,68,2007_066d,26-Jul-2020 08:11:54,26-Jul-2020 00:11:54,34.88934,-121.19896,076.7 055.0,076.7,055.0,40.000,40.294,,11.8276,,11.8295,,11.8286,33.4639,,33.4641,33.4663,,33.4679,33.4660,4.4604,,4.6430,4.6138,4.5758,,6.9826,5.1943,4.9041,194.264,202.3041,201.9865,199.288,309.5972,215.9125,208.9495,0.0678,,0.3724,0.4593,-99.0,,-99.0,-99.0,25.4294,,25.4309,,0.6991,83.9653,,7.995,,1.9043E+00,,8.2683E-03,,11.8225,11.8244,0.1160,,72.734,74.619,40,11.765,33.4660,,201.73,0.342,0.239,11.63,0.187,0.83,1.09,9.51
CalCOFI,2007SR,066,68,2007_066d,26-Jul-2020 08:11:56,26-Jul-2020 00:11:56,34.88934,-121.19896,076.7 055.0,076.7,055.0,41.000,41.302,,11.8034,,11.8003,,11.8019,33.4632,,33.4634,33.4671,,33.4687,33.4661,4.4467,,4.6287,4.5997,4.5536,,6.9296,5.1457,4.8727,193.663,201.6767,201.3632,198.320,308.1272,213.9238,207.6435,0.0608,,0.2901,0.3732,-99.0,,-99.0,-99.0,25.4334,,25.4370,,0.6974,83.9991,,7.991,,1.9043E+00,,2.0658E-03,,11.7982,11.7951,0.1186,,72.472,74.212,,,,,,,,,,,,
CalCOFI,2007SR,066,68,2007_066d,26-Jul-2020 08:11:59,26-Jul-2020 00:11:59,34.88934,-121.19896,076.7 055.0,076.7,055.0,42.000,42.309,,11.7827,,11.7821,,11.7824,33.4622,,33.4624,33.4641,,33.4657,33.4641,4.4150,,4.5955,4.5671,4.5331,,6.8807,5.1008,4.8340,192.285,200.2382,199.9343,197.425,304.7568,212.0850,206.0097,0.0605,,0.2866,0.3695,-99.0,,-99.0,-99.0,25.4365,,25.4381,,0.6966,84.0169,,7.988,,1.9043E+00,,-2.690E-05,,11.7774,11.7768,0.1212,,71.925,73.848,,,,,,,,,,,,
CalCOFI,2007SR,066,68,2007_066d,26-Jul-2020 08:12:01,26-Jul-2020 00:12:01,34.88934,-121.19896,076.7 055.0,076.7,055.0,43.000,43.317,,11.7335,,11.7338,,11.7337,33.4597,,33.4599,33.4618,,33.4634,33.4617,4.3927,,4.5722,4.5441,4.5201,,6.8496,5.0724,4.8083,191.310,199.2204,198.9233,196.859,302.3721,210.9221,204.9227,0.0587,,0.2654,0.3472,-99.0,,-99.0,-99.0,25.4437,,25.4453,,0.6955,84.0410,,7.984,,1.9043E+00,,1.0000E-12,,11.7281,11.7283,0.1237,,71.485,73.560,,,,,,,,,,,,
CalCOFI,2007SR,066,68,2007_066d,26-Jul-2020 08:12:03,26-Jul-2020 00:12:03,34.88934,-121.19896,076.7 055.0,076.7,055.0,44.000,44.324,,11.6662,,11.6671,,11.6667,33.4565,,33.4567,33.4594,,33.4610,33.4589,4.3512,,4.5289,4.5014,4.5113,,6.8286,5.0531,4.7773,189.502,197.3330,197.0484,196.472,297.9500,210.1270,203.5877,0.0572,,0.2478,0.3285,-99.0,,-99.0,-99.0,25.4537,,25.4558,,0.6913,84.1276,,7.980,,1.9043E+00,,1.0000E-12,,11.6607,11.6615,0.1263,,70.708,73.312,,,,,,,,,,,,
CalCOFI,2007SR,066,68,2007_066d,26-Jul-2020 08:12:05,26-Jul-2020 00:12:05,34.88934,-121.19896,076.7 055.0,076.7,055.0,45.000,45.332,,11.5954,,11.5948,,11.5951,33.4591,,33.4593,33.4622,,33.4638,33.4616,4.3195,,4.4957,4.4687,4.4995,,6.8005,5.0272,4.7480,188.120,195.8904,195.6153,195.955,294.5698,209.0648,202.3401,0.0556,,0.2290,0.3086,-99.0,,-99.0,-99.0,25.4688,,25.4714,,0.6847,84.2675,,7.975,,1.9043E+00,,1.0000E-12,,11.5897,11.5891,0.1288,,70.090,73.009,,,,,,,,,,,,
CalCOFI,2007SR,066,68,2007_066d,26-Jul-2020 08:12:07,26-Jul-2020 00:12:07,34.88934,-121.19896,076.7 055.0,076.7,055.0,46.000,46.339,,11.4896,,11.4906,,11.4901,33.4610,,33.4612,33.4627,,33.4643,33.4628,4.3284,,4.5050,4.4779,4.4929,,6.7847,5.0128,4.7454,188.503,196.2902,196.0125,195.665,295.5066,208.4690,202.2408,0.0506,,0.1703,0.2460,-99.0,,-99.0,-99.0,25.4897,,25.4909,,0.6829,84.3051,,7.969,,1.9043E+00,,1.0000E-12,,11.4839,11.4848,0.1313,,70.078,72.743,,,,,,,,,,,,
CalCOFI,2007SR,066,68,2007_066d,26-Jul-2020 08:12:08,26-Jul-2020 00:12:08,34.88934,-121.19896,076.7 055.0,076.7,055.0,47.000,47.347,,11.4262,,11.4272,,11.4267,33.4537,,33.4539,33.4561,,33.4577,33.4558,4.3318,,4.5086,4.4814,4.4807,,6.7556,4.9861,4.7338,188.647,196.4405,196.1618,195.134,295.8588,207.3781,201.7700,0.0521,,0.1879,0.2648,-99.0,,-99.0,-99.0,25.4957,,25.4974,,0.6778,84.4140,,7.966,,1.9043E+00,,1.0000E-12,,11.4204,11.4213,0.1339,,70.034,72.445,,,,,,,,,,,,
CalCOFI,2007SR,066,68,2007_066d,26-Jul-2020 08:12:11,26-Jul-2020 00:12:11,34.88934,-121.19896,076.7 055.0,076.7,055.0,48.000,48.354,,11.4005,,11.4027,,11.4016,33.4533,,33.4535,33.4568,,33.4584,33.4560,4.3282,,4.5048,4.4777,4.4624,,6.7119,4.9460,4.7119,188.492,196.2787,196.0011,194.336,295.4797,205.7386,200.8699,0.0507,,0.1714,0.2472,-99.0,,-99.0,-99.0,25.5001,,25.5024,,0.6795,84.3780,,7.962,,1.9043E+00,,1.0000E-12,,11.3946,11.3967,0.1364,,69.939,72.112,,,,,,,,,,,,
CalCOFI,2007SR,066,68,2007_066d,26-Jul-2020 08:12:13,26-Jul-2020 00:12:13,34.88934,-121.19896,076.7 055.0,076.7,055.0,49.000,49.362,,11.3981,,11.3979,,11.3980,33.4542,,33.4544,33.4566,,33.4582,33.4563,4.3210,,4.4973,4.4703,4.4443,,6.6687,4.9064,4.6884,188.176,195.9488,195.6734,193.548,294.7068,204.1196,199.8965,0.0488,,0.1491,0.2233,-99.0,,-99.0,-99.0,25.5013,,25.5031,,0.6777,84.4160,,7.961,,1.9043E+00,,1.0000E-12,,11.3920,11.3918,0.1389,,69.818,71.812,,,,,,,,,,,,